Content
SEND FEEDBACK

Daily
Averages
Monthly
Summary
United Kingdom

WINCHESTER, ENGLAND


Home > Europe > United Kingdom > England
Elevation: 297 feet     Latitude: 51 09N     Longitude: 001 34W

WEATHER
 
SELECT A DAY
Number of Records: 65,448;   Date Range: 10/20/98 - 12/23/14
 
SHARE

PRINT THIS DATA

[ ← Previous Day ]
WEATHER ALMANAC - MARCH 8, 2013
[ Next Day → ]
[ °C ]   °F
Weather ElementAverageHighLow
Temperature49.3 °F52 °F (2:50 pm)46.4 °F (11:50 pm)
Dewpoint48.2 °F50 °F (3:50 pm)46 °F (11:50 pm)
Humidity95.7 %100 % (1:50 am)84 % (2:50 pm)
Barometer29.45 in29.56 in (11:50 pm)29.36 in (1:50 am)
Wind Speed2.6 mph4.6 mph (1:50 am)
Weather ElementAverage
Visibility1.8 mi
Wind DirectionESE (128.7 °)

Weather ElementTotal
Precipitation---
Heating Degree Days15.8 (Base 65)
Averaged from 31 records on March 8, 2013
WEATHER CONDITIONS BREAKOUT
WIND DIRECTION BREAKOUT
WEATHER BY HOUR - MARCH 8, 2013
[ °C ]   °F
Local TimeTemperatureDewpointHumidityBarometerVisibilityWind DirectionWind SpeedGust SpeedPrecipitationEventsConditions
1:50 AM48.2 °F48.2 °F100 %29.36 in0.7 miEast (100°)4.6 mphOvercast
2:50 AM49.0 °F48.0 °F94 %29.38 in1.0 miEast (100°)4.6 mphOvercast
2:50 AM48.2 °F48.2 °F100 %29.36 in0.8 miEast (100°)4.6 mphOvercast
3:50 AM48.2 °F48.2 °F100 %29.36 in0.6 miEast (90°)3.5 mphOvercast
4:50 AM48.2 °F48.2 °F100 %29.36 in0.1 miENE (70°)1.2 mph
5:50 AM49.0 °F48.0 °F94 %29.39 in0.0 miNE (40°)1.2 mphFogHeavy Fog
5:50 AM48.2 °F48.2 °F100 %29.36 in0.1 miNE (40°)1.2 mphFogFog
6:50 AM48.2 °F48.2 °F100 %29.39 in0.1 miENE (60°)3.5 mphFogFog
7:50 AM48.2 °F48.2 °F100 %29.39 in0.1 miEast (100°)3.5 mphFogFog
8:50 AM49.0 °F48.0 °F94 %29.42 in0.0 miENE (70°)4.6 mphRainLight Rain
8:50 AM48.2 °F48.2 °F100 %29.42 in0.5 miENE (70°)4.6 mphRainLight Rain
9:50 AM48.2 °F48.2 °F100 %29.42 in0.9 miEast (90°)4.6 mphRainLight Rain
10:50 AM50.0 °F48.2 °F94 %29.44 in1.4 miSSE (150°)2.3 mphRainRain
11:50 AM49.0 °F48.0 °F96 %29.47 in2.0 miSSW (200°)1.2 mphRainRain
11:50 AM50.0 °F48.2 °F94 %29.44 in1.6 miSSW (200°)1.2 mphRainRain
12:50 PM50.0 °F48.2 °F94 %29.44 in2.8 miNNE (30°)1.2 mphRainLight Rain
1:50 PM51.8 °F48.2 °F88 %29.44 in5.0 miNorth (360°)1.2 mphRainLight Rain
2:50 PM52.0 °F49.0 °F84 %29.48 in4.0 miEast (100°)1.2 mphPartly Cloudy
2:50 PM51.8 °F48.2 °F88 %29.47 in4.3 miEast (100°)1.2 mphMostly Cloudy
3:50 PM51.8 °F50.0 °F94 %29.47 in6.2 miEast (90°)3.5 mphMostly Cloudy
4:50 PM51.8 °F50.0 °F94 %29.47 in6.2 miSouth (180°)3.5 mphMostly Cloudy
5:50 PM51.0 °F49.0 °F92 %29.51 in3.0 miESE (110°)3.5 mphMostly Cloudy
5:50 PM50.0 °F50.0 °F100 %29.50 in3.1 miESE (110°)3.5 mphMostly Cloudy
6:50 PM50.0 °F48.2 °F94 %29.50 in3.7 miSouth (170°)1.2 mphMostly Cloudy
7:50 PM50.0 °F48.2 °F94 %29.50 in0.7 miSSE (160°)2.3 mphMostly Cloudy
8:50 PM49.0 °F48.0 °F97 %2.0 miSouth (180°)1.2 mphScattered Clouds
8:50 PM50.0 °F48.2 °F94 %29.50 in1.6 miSouth (180°)1.2 mphMostly Cloudy
9:50 PM48.2 °F48.2 °F100 %29.53 in1.4 miSSW (210°)2.3 mphMostly Cloudy
10:50 PM48.2 °F46.4 °F93 %29.53 in0.8 miSSE (150°)3.5 mphOvercast
11:50 PM47.0 °F46.0 °F94 %29.56 in0.0 miSouth (190°)2.3 mph
11:50 PM46.4 °F46.4 °F100 %29.53 in0.1 miSouth (190°)2.3 mph
Hourly data recorded from EGVP, located miles away from Winchester, England







STORIES FROM OUR PARTNERS